Location: Chittendens Corners
(41.2320°N, 81.4940°W)
Time: 23:30:38
(UTC+00:00)

FengYun 1-2 T - Pass Details

Date: 29 October 2020
Orbit: 846 x 882 km, 98.7° (Epoch: 29 November)

Event Time Altitude Azimuth Distance (km) Brightness Sun altitude
Rises 22:55:47 0° 156° (SSE) 3,467 7.3 -6.5°
Reaches altitude 10° 22:58:11 10° 154° (SSE) 2,531 6.6 -7.0°
Maximum altitude 23:03:46 67° 73° (ENE) 949 4.3 -8.0°
Drops below altitude 10° 23:09:22 10° 352° (N) 2,533 6.7 -9.0°
Sets 23:11:45 0° 350° (N) 3,470 7.4 -9.5°
